User: anonymous   Login
Location: Unspecified
(0.0000°N, 0.0000°E)
Time: 01:06:41
(UTC+00:00)
Language:

YUNYAO-1 18 - Orbit

View from above orbital plane
View from above orbital plane
View from above satellite
View from above satellite

Ground track
Ground track

The orbit is defined by the following mean orbital elements,

1 58758U          26145.20923646 +.00000000 +00000-0 +57957-3 0 00002
2 58758  49.9919 267.4626 0004929 200.5349 159.5408 15.22817684    02
Epoch (UTC): 25 May 2026 05:01:18
Eccentricity: 0.0004929
inclination: 49.9919°
perigee height: 494 km
apogee height: 501 km
right ascension of ascending node: 267.4626°
argument of perigee: 200.5349°
revolutions per day: 15.22817684
mean anomaly at epoch: 159.5408°

The dashed part of the orbit path shows where the satellite is in the earth's shadow,  

DLR